Regional Weather Roundup
Issued by NWS Boston, MA

Current Version | Previous Version | Text Only | Print | Product List | Glossary On
Versions: 1 2 3 4 5 6 7 8 9 10 11 12 13 14 15 16 17 18 19 20 21 22 23 24 25 26 27 28
000
ASUS41 KBOX 301610
RWRBOX

REGIONAL WEATHER ROUNDUP
NATIONAL WEATHER SERVICE TAUNTON MA
1200 PM EDT THU OCT 30 2014

NOTE:  "FAIR" INDICATES FEW OR NO CLOUDS BELOW 12,000 FEET WITH NO
SIGNIFICANT WEATHER AND/OR OBSTRUCTIONS TO VISIBILITY.  THE FOLLOWING
OBSERVATION LOCATIONS DO NOT REPORT PRESENT WEATHER...PROVINCETOWN...
SMITHFIELD...BLOCK ISLAND...KEENE...AND OXFORD.

MAZALL-301700-
EASTERN MASSACHUSETTS

CITY           SKY/WX    TMP DP  RH WIND       PRES   REMARKS
BOSTON         MOSUNNY   57  39  51 W10       29.92F
BEVERLY        MOSUNNY   56  39  53 NW12G22   29.91F
LAWRENCE       CLOUDY    54  40  59 NW8       29.94F
BEDFORD        MOSUNNY   56  41  57 NW12      29.92F
BLUE HILL        N/A     55  39  54 NW9G17    29.91F
NORWOOD        SUNNY     59  38  45 NW8       29.92F
MARSHFIELD     NOT AVBL
PLYMOUTH       SUNNY     57  41  55 VRB6      29.93F
TAUNTON        SUNNY     59  39  47 NW7       29.93F
NEW BEDFORD    SUNNY     58  40  51 NW6       29.92F
$$

MAZALL-301700-
CAPE COD AND THE ISLANDS

CITY           SKY/WX    TMP DP  RH WIND       PRES   REMARKS
FALMOUTH       SUNNY     59  41  51 NW8       29.93S
HYANNIS        SUNNY     58  41  53 N8        29.92F
CHATHAM        SUNNY     57  42  57 VRB5      29.94S
PROVINCETOWN   SUNNY     57   3  11 NW10      29.93F
NANTUCKET      SUNNY     56  43  61 NW9       29.94S
MARTHAS VNYRD  SUNNY     59  41  51 NW8       29.94S
$$

MAZALL-301700-
CENTRAL AND WESTERN MASSACHUSETTS

CITY           SKY/WX    TMP DP  RH WIND       PRES   REMARKS
WORCESTER      MOSUNNY   50  39  66 W10G16    29.94F
FITCHBURG      MOSUNNY   56  38  50 W12       29.94S
ORANGE         MOSUNNY   52  37  56 NW12      29.95S
SPRINGFIELD    SUNNY     55  38  52 W12       29.95F
WESTFIELD      MOSUNNY   55  36  48 NW12G18   29.96F
NORTH ADAMS    CLOUDY    49  36  61 W7        29.97R
PITTSFIELD     MOSUNNY   48  36  63 W15G24    29.95S
$$

RIZALL-301700-
RHODE ISLAND

CITY           SKY/WX    TMP DP  RH WIND       PRES   REMARKS
PROVIDENCE     MOSUNNY   58  37  45 NW14      29.94F
NEWPORT        SUNNY     59  40  49 NW7       29.94F
BLOCK ISLAND   SUNNY     57  41  54 NW7       29.96S
SMITHFIELD     SUNNY     55  36  47 NW8       29.93F
WESTERLY       SUNNY     59  39  47 NW10      29.96F
$$

CTZALL-301700-
CONNECTICUT

CITY           SKY/WX    TMP DP  RH WIND       PRES   REMARKS
BRADLEY INTL   PTSUNNY   55  37  50 NW9       29.96S
HARTFORD       SUNNY     55  38  52 W10       29.97F
BRIDGEPORT     CLOUDY    56  40  55 N8        29.98S
DANBURY        SUNNY     55  38  52 NW10      29.99S
GROTON         SUNNY     57  39  51 NW12      29.95F
NEW HAVEN      PTSUNNY   57  39  51 VRB5      29.97F
CHESTER        NOT AVBL
MERIDEN        MOSUNNY   57  37  47 N9        29.97F
WILLIMANTIC    SUNNY     56  38  50 N8        29.96F
OXFORD         MOSUNNY   52  37  58 NW9       29.98S
$$

MEZ002-015-021-024-NHZ003-005-008-011-012-014-VTZ005-008-301700-
NORTHERN NEW ENGLAND

CITY           SKY/WX    TMP DP  RH WIND       PRES   REMARKS
PORTLAND ME    CLOUDY    53  43  68 NW7       29.90F
BANGOR ME      PTSUNNY   51  42  71 W7        29.87F
CONCORD NH     MOSUNNY   53  41  63 NW7       29.93S
MANCHESTER NH  PTSUNNY   54  38  54 N14       29.91F
NASHUA NH      PTSUNNY   55  38  52 NW13      29.93F
PORTSMOUTH NH  PTSUNNY   54  41  62 W9        29.90F
JAFFREY NH     CLOUDY    50  38  63 NW8       29.94S
KEENE NH       PTSUNNY   48  37  66 CALM      29.95F
BURLINGTON VT  PTSUNNY   48  35  60 NW9       29.97S
MT. WASHINGTON FOG       23  23 100 NW39        N/A  VSB 0   WCI   3
$$

NYZ052-076-301700-
EASTERN NEW YORK

CITY           SKY/WX    TMP DP  RH WIND       PRES   REMARKS
ALBANY         PTSUNNY   53  37  54 NW14      29.99S
NEW YORK CITY  MOSUNNY   56  38  50 N9        29.99S
$$

ANZALL-301700-
MARINE OBSERVATIONS

STATION/POSITION TIME  TEMP    WIND        PRES    VSBY  WAVE
                       AIR SEA DIR/SP/G                  HT/PER
                 (UTC) (F)     (DEG/KT/KT) (MB)    (MI)  (FT/S)
BOSTON BUOY      1550   53 54  320/ 10/ 10 1013.6F         1/ 3
BUZZARDS BAY     1500          310/ 12/ 14 1014.9R
NANTUCKET SOUND  1550   55 57  300/  6/  6 1013.6F         1/ 3
MASS BAY-STELLWA 1504   53 54  300/ 10/ 10   N/A    1 7/8  1/ 6
ISLE OF SHOALS   1600   52     290/ 15/ 17 1011.9F
S OF BLOCK IS    1508      61                N/A           3/ 7
$$

......................KEY.........................
  SKY/WX - SKY CONDITION/PRESENT WEATHER
  TMP    - TEMPERATURE IN FAHRENHEIT
  DWPT   - DEWPOINT IN FAHRENHEIT
  RH     - RELATIVE HUMIDITY IN PERCENT
  WIND   - DIRECTION AND SPEED IN MPH
  PRES   - MEAN SEA LEVEL PRESSURE IN INCHES OF HG
  WCI    - WIND CHILL INDEX
  VSB    - VISIBILITY IN MILES
  HX     - HEAT INDEX
  TC     - TEMPERATURE IN CELSIUS
  VRB    - VARIABLE WIND DIRECTION
  N/A    - NOT AVAILABLE



USA.gov is the U.S. government's official web portal to all federal, state and local government web resources and services.